Location: Aulnoy
(48.8410°N, 3.0967°E)
Time: 16:22:24
(UTC+00:00)

Okean-O - Pass Details

Date: 09 February 2023
Orbit: 637 x 638 km, 98.1° (Epoch: 25 March)

Event Time Altitude Azimuth Distance (km) Brightness Sun altitude
Exits shadow 18:28:17 19° 49° (NE) 1,509 4.1 -15.2°
Drops below altitude 10° 18:30:52 10° 14° (NNE) 2,043 5.0 -15.7°
Sets 18:33:32 0° 358° (N) 2,957 6.0 -16.1°
